| time (UTC) | temp C | wind direction | speed KPH | gust KPH | rain 1hr cm | rain 24hr cm | rain mn cm | humidity % | barometer mb |
| 20260504081539 | 14 | 330 | 29.0 | 46.7 | 0.00 | 0.00 | 0.00 | 47 | 1018.0 |
| 20260504044536 | 10 | 320 | 27.4 | 45.1 | 0.00 | 0.00 | 0.00 | 64 | 1016.0 |
| 20260504043036 | 10 | 320 | 19.3 | 38.6 | 0.00 | 0.00 | 0.00 | 64 | 1016.0 |
| 20260504041536 | 10 | 320 | 19.3 | 38.6 | 0.00 | 0.00 | 0.00 | 65 | 1017.0 |
| 20260504040035 | 10 | 330 | 30.6 | 0.0 | 0.00 | 0.00 | 0.00 | 65 | 1016.0 |
| 20260504034535 | 10 | 330 | 30.6 | 0.0 | 0.00 | 0.00 | 0.00 | 64 | 1016.0 |
| 20260504033035 | 10 | 330 | 27.4 | 51.5 | 0.00 | 0.00 | 0.00 | 64 | 1016.0 |
| 20260504031535 | 10 | 330 | 27.4 | 51.5 | 0.00 | 0.00 | 0.00 | 64 | 1016.0 |
| 20260504030034 | 10 | 345 | 11.3 | 22.5 | 0.00 | 0.00 | 0.00 | 63 | 1016.0 |
| 20260504024534 | 10 | 320 | 30.6 | 51.5 | 0.00 | 0.00 | 0.00 | 63 | 1016.0 |
| 20260504023034 | 10 | 320 | 30.6 | 51.5 | 0.00 | 0.00 | 0.00 | 62 | 1016.0 |
| 20260504021533 | 10 | 320 | 30.6 | 51.5 | 0.00 | 0.00 | 0.00 | 62 | 1016.0 |
| 20260504020033 | 10 | 350 | 11.3 | 27.4 | 0.00 | 0.00 | 0.00 | 62 | 1016.0 |
| 20260504014533 | 10 | 330 | 33.8 | 54.7 | 0.00 | 0.00 | 0.00 | 61 | 1016.0 |
| 20260504013033 | 10 | 330 | 33.8 | 54.7 | 0.00 | 0.00 | 0.00 | 62 | 1016.0 |
| 20260504011533 | 10 | 330 | 33.8 | 54.7 | 0.00 | 0.00 | 0.00 | 60 | 1016.0 |
| 20260504010032 | 10 | 346 | 14.5 | 33.8 | 0.00 | 0.00 | 0.00 | 59 | 1016.0 |
| 20260504004532 | 10 | 310 | 27.4 | 0.0 | 0.00 | 0.00 | 0.00 | 60 | 1016.0 |
| 20260504003032 | 10 | 310 | 27.4 | 0.0 | 0.00 | 0.00 | 0.00 | 61 | 1016.0 |
| 20260504001532 | 10 | 310 | 27.4 | 0.0 | 0.00 | 0.00 | 0.00 | 59 | 1016.0 |
| 20260504000031 | 10 | 355 | 17.7 | 40.2 | 0.00 | 0.00 | 0.00 | 58 | 1015.0 |
| 20260503234531 | 10 | 330 | 40.2 | 0.0 | 0.00 | 0.00 | 0.00 | 57 | 1015.0 |
| 20260503233031 | 10 | 330 | 40.2 | 0.0 | 0.00 | 0.00 | 0.00 | 57 | 1015.0 |
| 20260503231530 | 10 | 330 | 40.2 | 0.0 | 0.00 | 0.00 | 0.00 | 57 | 1016.0 |
| 20260503230030 | 10 | 334 | 12.9 | 29.0 | 0.00 | 0.00 | 0.00 | 57 | 1015.0 |
| 20260503224530 | 11 | 340 | 37.0 | 62.8 | 0.00 | 0.00 | 0.00 | 57 | 1015.0 |
| 20260503223030 | 11 | 340 | 37.0 | 62.8 | 0.00 | 0.00 | 0.00 | 57 | 1015.0 |
| 20260503221529 | 11 | 340 | 37.0 | 62.8 | 0.00 | 0.00 | 0.00 | 57 | 1015.0 |
| 20260503220029 | 11 | 0 | 17.7 | 40.2 | 0.00 | 0.00 | 0.00 | 58 | 1015.0 |
| 20260503214529 | 11 | 330 | 37.0 | 54.7 | 0.00 | 0.00 | 0.00 | 59 | 1015.0 |
| 20260503213029 | 11 | 330 | 37.0 | 54.7 | 0.00 | 0.00 | 0.00 | 60 | 1015.0 |
| 20260503211528 | 11 | 330 | 37.0 | 54.7 | 0.00 | 0.00 | 0.00 | 58 | 1015.0 |
| 20260503210028 | 11 | 340 | 37.0 | 54.7 | 0.00 | 0.00 | 0.00 | 60 | 1015.0 |
| 20260503204528 | 11 | 340 | 37.0 | 54.7 | 0.00 | 0.00 | 0.00 | 59 | 1014.0 |
| 20260503203028 | 11 | 350 | 30.6 | 49.9 | 0.00 | 0.00 | 0.00 | 61 | 1015.0 |
| 20260503201527 | 11 | 350 | 30.6 | 49.9 | 0.00 | 0.00 | 0.00 | 63 | 1015.0 |
| 20260503200027 | 11 | 360 | 27.4 | 45.1 | 0.00 | 0.00 | 0.00 | 64 | 1014.0 |
| 20260503194527 | 12 | 360 | 27.4 | 45.1 | 0.00 | 0.00 | 0.00 | 65 | 1014.0 |
| 20260503193027 | 12 | 360 | 27.4 | 45.1 | 0.00 | 0.00 | 0.00 | 65 | 1014.0 |
| 20260503191526 | 12 | 360 | 27.4 | 45.1 | 0.00 | 0.00 | 0.00 | 66 | 1014.0 |
| 20260503190026 | 12 | 360 | 27.4 | 0.0 | 0.00 | 0.00 | 0.00 | 65 | 1014.0 |
| 20260503184526 | 12 | 360 | 27.4 | 0.0 | 0.00 | 0.00 | 0.00 | 65 | 1014.0 |
| 20260503183026 | 12 | 360 | 19.3 | 38.6 | 0.00 | 0.00 | 0.00 | 66 | 1014.0 |
| 20260503181525 | 12 | 360 | 19.3 | 38.6 | 0.00 | 0.00 | 0.00 | 65 | 1014.0 |
| 20260503180025 | 12 | 360 | 19.3 | 38.6 | 0.00 | 0.00 | 0.00 | 65 | 1013.0 |
| 20260503174525 | 12 | 360 | 19.3 | 38.6 | 0.00 | 0.00 | 0.00 | 64 | 1013.0 |
| 20260503173025 | 12 | 360 | 19.3 | 38.6 | 0.00 | 0.00 | 0.00 | 64 | 1013.0 |
| 20260503171524 | 12 | 360 | 19.3 | 38.6 | 0.00 | 0.00 | 0.00 | 65 | 1013.0 |